{"data":{"norad_id":68299,"intl_designator":"2026-057F","name":"STARLINK-37118","alt_names":[],"object_type":"PAYLOAD","status":"ACTIVE","operator":null,"country":"US","launch_date":"2026-03-20","launch_site_code":"AFWTR","launch_vehicle":null,"mission":null,"orbit_class":"UNKNOWN","rcs_meters":null,"size_class":null,"mass_kg":null,"dimensions":null,"purposes":["comms"],"wikipedia_slug":null,"has_3d_model":false,"image_url":null,"decayed_at":null,"tle_current":{"epoch":"2026-05-25T02:19:22.598112Z","epoch_age_seconds":66724,"freshness":"FRESH","line1":"1 68299U 26057F   26145.09678933  .00207943  00000+0  13573-2 0  9992","line2":"2 68299  97.2845 271.3472 0001628  59.6501 300.4925 15.75259224 10310","mean_motion":15.75259224,"eccentricity":0.0001628,"inclination_deg":97.2845,"raan_deg":271.3472,"arg_perigee_deg":59.6501,"mean_anomaly_deg":300.4925,"bstar":0.0013573,"rev_number":1031,"period_min":91.413525981042,"perigee_km":342.79928397719,"apogee_km":344.9879771505,"semimajor_km":6722.0306305638,"source":"CELESTRAK","updated_at":"2026-05-25T13:38:21.916527Z"}}}